| time (UTC) | temp F | wind direction | speed MPH | gust MPH | rain 1hr in | rain 24hr in | rain mn in | humidity % | barometer mb |
| 20260831011513 | 65 | 23 | 0.0 | 0.0 | 0.00 | 0.00 | 0.00 | 93 | 1014.4 |
| 20260831010015 | 65 | 23 | 0.0 | 0.0 | 0.00 | 0.00 | 0.00 | 93 | 1014.3 |
| 20260831004512 | 66 | 360 | 0.0 | 0.0 | 0.00 | 0.00 | 0.00 | 92 | 1014.2 |
| 20260831003009 | 66 | 360 | 0.0 | 0.0 | 0.00 | 0.00 | 0.00 | 92 | 1014.2 |
| 20260831001512 | 66 | 360 | 0.0 | 1.0 | 0.00 | 0.00 | 0.00 | 92 | 1014.5 |
| 20260831000012 | 66 | 360 | 0.0 | 1.0 | 0.00 | 0.00 | 0.00 | 92 | 1014.6 |
| 20260830234515 | 66 | 360 | 0.0 | 0.0 | 0.00 | 0.00 | 0.00 | 91 | 1014.3 |
| 20260830233019 | 66 | 24 | 0.0 | 1.0 | 0.00 | 0.00 | 0.00 | 90 | 1014.6 |
| 20260830231512 | 66 | 20 | 0.0 | 2.0 | 0.00 | 0.00 | 0.00 | 90 | 1014.4 |
| 20260830230015 | 67 | 360 | 0.0 | 2.0 | 0.00 | 0.00 | 0.00 | 90 | 1014.6 |
| 20260830224512 | 67 | 19 | 0.0 | 1.0 | 0.00 | 0.00 | 0.00 | 90 | 1014.4 |
| 20260830223013 | 67 | 21 | 0.0 | 2.0 | 0.00 | 0.00 | 0.00 | 90 | 1014.7 |
| 20260830221513 | 67 | 68 | 0.0 | 1.0 | 0.00 | 0.00 | 0.00 | 91 | 1014.6 |
| 20260830220014 | 67 | 360 | 0.0 | 2.0 | 0.00 | 0.00 | 0.00 | 90 | 1014.8 |
| 20260830214514 | 67 | 360 | 0.0 | 2.0 | 0.00 | 0.00 | 0.00 | 90 | 1014.6 |
| 20260830213012 | 66 | 360 | 0.0 | 4.0 | 0.00 | 0.00 | 0.00 | 90 | 1014.7 |
| 20260830211515 | 67 | 35 | 0.0 | 2.0 | 0.00 | 0.00 | 0.00 | 90 | 1014.7 |
| 20260830210026 | 67 | 46 | 0.0 | 2.0 | 0.00 | 0.00 | 0.00 | 90 | 1014.7 |
| 20260830204519 | 67 | 161 | 0.0 | 4.0 | 0.00 | 0.00 | 0.00 | 90 | 1014.7 |
| 20260830203015 | 67 | 74 | 0.0 | 1.0 | 0.00 | 0.00 | 0.00 | 90 | 1015.0 |
| 20260830201514 | 67 | 73 | 0.0 | 1.0 | 0.00 | 0.01 | 0.00 | 90 | 1014.8 |
| 20260830200013 | 67 | 70 | 0.0 | 2.0 | 0.00 | 0.01 | 0.00 | 91 | 1014.7 |
| 20260830194521 | 67 | 144 | 0.0 | 1.0 | 0.00 | 0.01 | 0.00 | 91 | 1014.9 |
| 20260830193017 | 66 | 360 | 0.0 | 1.0 | 0.00 | 0.01 | 0.00 | 91 | 1014.8 |
| 20260830191520 | 66 | 360 | 0.0 | 2.0 | 0.00 | 0.01 | 0.00 | 91 | 1015.2 |
| 20260830190016 | 67 | 100 | 0.0 | 5.0 | 0.00 | 0.01 | 0.00 | 91 | 1015.3 |
| 20260830184517 | 67 | 41 | 1.0 | 5.0 | 0.00 | 0.01 | 0.00 | 90 | 1015.1 |
| 20260830183020 | 68 | 343 | 1.0 | 5.0 | 0.00 | 0.01 | 0.00 | 89 | 1015.4 |
| 20260830181510 | 68 | 23 | 0.0 | 3.0 | 0.00 | 0.01 | 0.00 | 90 | 1014.9 |
| 20260830180016 | 67 | 226 | 0.0 | 5.0 | 0.00 | 0.01 | 0.00 | 90 | 1014.9 |
| 20260830174520 | 67 | 186 | 0.0 | 2.0 | 0.00 | 0.01 | 0.00 | 90 | 1015.1 |
| 20260830173004 | 67 | 55 | 0.0 | 2.0 | 0.00 | 0.01 | 0.00 | 90 | 1015.1 |
| 20260830171505 | 67 | 9 | 0.0 | 4.0 | 0.00 | 0.01 | 0.00 | 90 | 1015.5 |
| 20260830170012 | 67 | 58 | 0.0 | 4.0 | 0.00 | 0.01 | 0.00 | 89 | 1015.4 |
| 20260830164532 | 68 | 39 | 0.0 | 6.0 | 0.00 | 0.01 | 0.00 | 89 | 1015.1 |
| 20260830163026 | 68 | 360 | 0.0 | 3.0 | 0.00 | 0.01 | 0.00 | 90 | 1015.1 |
| 20260830161503 | 67 | 90 | 0.0 | 2.0 | 0.00 | 0.01 | 0.00 | 92 | 1015.3 |
| 20260830160006 | 66 | 360 | 0.0 | 3.0 | 0.00 | 0.01 | 0.00 | 92 | 1015.3 |
| 20260830154512 | 66 | 186 | 0.0 | 3.0 | 0.00 | 0.01 | 0.00 | 93 | 1015.2 |
| 20260830153020 | 66 | 260 | 0.0 | 3.0 | 0.00 | 0.01 | 0.00 | 93 | 1014.9 |
| 20260830151523 | 66 | 172 | 0.0 | 1.0 | 0.00 | 0.01 | 0.00 | 94 | 1014.9 |
| 20260830150004 | 65 | 360 | 0.0 | 1.0 | 0.00 | 0.01 | 0.00 | 94 | 1015.0 |
| 20260830144512 | 65 | 360 | 0.0 | 3.0 | 0.00 | 0.01 | 0.00 | 95 | 1014.9 |
| 20260830143027 | 65 | 360 | 0.0 | 1.0 | 0.00 | 0.01 | 0.00 | 95 | 1014.9 |
| 20260830141533 | 65 | 360 | 0.0 | 3.0 | 0.00 | 0.01 | 0.00 | 96 | 1014.7 |
| 20260830140028 | 65 | 33 | 0.0 | 3.0 | 0.00 | 0.01 | 0.00 | 96 | 1014.6 |
| 20260830134503 | 64 | 28 | 0.0 | 2.0 | 0.00 | 0.01 | 0.00 | 96 | 1014.7 |
| 20260830133010 | 64 | 34 | 0.0 | 0.0 | 0.00 | 0.01 | 0.00 | 96 | 1014.9 |
| 20260830131516 | 64 | 34 | 0.0 | 0.0 | 0.00 | 0.01 | 0.00 | 96 | 1015.0 |
| 20260830130031 | 64 | 360 | 0.0 | 1.0 | 0.00 | 0.01 | 0.00 | 96 | 1015.0 |
| 20260830124530 | 64 | 360 | 0.0 | 1.0 | 0.00 | 0.01 | 0.00 | 96 | 1014.8 |
| 20260830123008 | 64 | 360 | 0.0 | 3.0 | 0.00 | 0.01 | 0.00 | 96 | 1014.6 |
| 20260830121515 | 63 | 360 | 0.0 | 2.0 | 0.00 | 0.01 | 0.00 | 96 | 1014.6 |
| 20260830120020 | 63 | 360 | 0.0 | 2.0 | 0.00 | 0.01 | 0.00 | 96 | 1014.6 |
| 20260830114529 | 63 | 360 | 0.0 | 0.0 | 0.00 | 0.01 | 0.00 | 96 | 1014.5 |
| 20260830113006 | 63 | 360 | 0.0 | 0.0 | 0.00 | 0.01 | 0.00 | 96 | 1014.3 |
| 20260830111510 | 63 | 360 | 0.0 | 0.0 | 0.00 | 0.01 | 0.00 | 96 | 1014.2 |
| 20260830110025 | 63 | 360 | 0.0 | 0.0 | 0.00 | 0.01 | 0.00 | 96 | 1014.0 |
| 20260830104523 | 62 | 360 | 0.0 | 0.0 | 0.00 | 0.01 | 0.00 | 96 | 1014.0 |
| 20260830103036 | 62 | 360 | 0.0 | 0.0 | 0.00 | 0.01 | 0.00 | 96 | 1014.1 |
| 20260830101509 | 62 | 360 | 0.0 | 0.0 | 0.00 | 0.01 | 0.00 | 96 | 1014.0 |
| 20260830100016 | 62 | 360 | 0.0 | 0.0 | 0.00 | 0.01 | 0.00 | 96 | 1014.1 |
| 20260830094526 | 62 | 360 | 0.0 | 0.0 | 0.00 | 0.01 | 0.00 | 96 | 1014.2 |
| 20260830093023 | 62 | 360 | 0.0 | 0.0 | 0.00 | 0.01 | 0.00 | 96 | 1014.4 |
| 20260830091535 | 62 | 360 | 0.0 | 0.0 | 0.00 | 0.01 | 0.00 | 96 | 1014.3 |
| 20260830090012 | 62 | 360 | 0.0 | 0.0 | 0.00 | 0.01 | 0.00 | 96 | 1014.3 |
| 20260830084514 | 62 | 360 | 0.0 | 0.0 | 0.00 | 0.01 | 0.00 | 96 | 1014.2 |
| 20260830083022 | 62 | 360 | 0.0 | 0.0 | 0.00 | 0.01 | 0.00 | 95 | 1014.2 |
| 20260830081540 | 61 | 360 | 0.0 | 0.0 | 0.00 | 0.01 | 0.00 | 95 | 1014.2 |
| 20260830080032 | 61 | 360 | 0.0 | 0.0 | 0.00 | 0.01 | 0.00 | 95 | 1014.3 |
| 20260830074512 | 61 | 360 | 0.0 | 0.0 | 0.00 | 0.01 | 0.00 | 95 | 1014.3 |
| 20260830073022 | 61 | 121 | 0.0 | 1.0 | 0.00 | 0.01 | 0.00 | 95 | 1014.3 |
| 20260830071525 | 61 | 122 | 0.0 | 0.0 | 0.00 | 0.01 | 0.00 | 95 | 1014.5 |
| 20260830070034 | 62 | 360 | 0.0 | 0.0 | 0.00 | 0.01 | 0.00 | 95 | 1014.6 |
| 20260830064533 | 62 | 360 | 0.0 | 0.0 | 0.00 | 0.01 | 0.00 | 95 | 1014.8 |
| 20260830063020 | 62 | 360 | 0.0 | 1.0 | 0.00 | 0.01 | 0.00 | 95 | 1015.0 |
| 20260830061522 | 62 | 360 | 0.0 | 1.0 | 0.00 | 0.01 | 0.00 | 94 | 1015.0 |
| 20260830060028 | 62 | 360 | 0.0 | 0.0 | 0.00 | 0.01 | 0.00 | 94 | 1015.0 |
| 20260830054512 | 62 | 360 | 0.0 | 1.0 | 0.00 | 0.01 | 0.00 | 94 | 1015.3 |
| 20260830053010 | 62 | 360 | 0.0 | 1.0 | 0.00 | 0.01 | 0.00 | 94 | 1015.3 |
| 20260830051517 | 62 | 360 | 0.0 | 1.0 | 0.00 | 0.01 | 0.00 | 94 | 1015.2 |
| 20260830050024 | 62 | 360 | 0.0 | 2.0 | 0.00 | 0.01 | 0.00 | 94 | 1015.1 |
| 20260830044528 | 63 | 360 | 0.0 | 3.0 | 0.00 | 0.01 | 0.00 | 93 | 1015.0 |
| 20260830043007 | 63 | 360 | 0.0 | 3.0 | 0.00 | 0.01 | 0.00 | 93 | 1014.8 |
| 20260830041511 | 63 | 360 | 0.0 | 0.0 | 0.00 | 0.01 | 0.00 | 93 | 1015.1 |
| 20260830040022 | 63 | 360 | 0.0 | 1.0 | 0.00 | 0.01 | 0.00 | 93 | 1015.0 |
| 20260830034526 | 63 | 360 | 0.0 | 1.0 | 0.00 | 0.01 | 0.01 | 92 | 1015.1 |
| 20260830033027 | 64 | 360 | 0.0 | 3.0 | 0.00 | 0.01 | 0.01 | 92 | 1015.1 |
| 20260830031507 | 64 | 360 | 0.0 | 2.0 | 0.00 | 0.01 | 0.01 | 91 | 1015.1 |
| 20260830030015 | 65 | 360 | 0.0 | 5.0 | 0.00 | 0.01 | 0.01 | 91 | 1015.1 |
| 20260830024525 | 65 | 360 | 0.0 | 3.0 | 0.00 | 0.01 | 0.01 | 90 | 1014.9 |
| 20260830023026 | 65 | 360 | 0.0 | 5.0 | 0.00 | 0.01 | 0.01 | 91 | 1015.0 |
| 20260830021528 | 65 | 360 | 0.0 | 5.0 | 0.00 | 0.01 | 0.01 | 94 | 1015.0 |
| 20260830020013 | 65 | 360 | 1.0 | 3.0 | 0.00 | 0.01 | 0.01 | 95 | 1014.9 |
| 20260830014517 | 65 | 360 | 0.0 | 4.0 | 0.00 | 0.01 | 0.01 | 95 | 1014.9 |
| 20260830013023 | 65 | 360 | 0.0 | 3.0 | 0.00 | 0.01 | 0.01 | 95 | 1014.9 |